Temperature
10 11 11 10 10 11 11 11 12 12 11 11 11 12 12 11 10 10 10 10 9 9 9 9 9 10 10 10 10 10 10 10 10 10 10 10 10 10 10 10 10 10 10 10
11 11 10 9 10 10 11 11 11 11 10 11 11 11 12 11 10 10 10 10 9 9 8 9 9 9 9 10 10 10 10 10 10 10 10 10 10 10 10 10 10 10 10 10
11 10 9 9 10 10 10 11 11 10 10 10 11 13 12 11 10 10 9 9 9 8 8 8 9 9 9 9 10 10 10 9 9 9 9 9 9 9 10 9 9 9 9 9
10 9 9 9 9 10 10 9 9 9 11 11 11 12 13 11 11 11 10 9 9 8 8 8 9 9 9 9 9 9 9 9 9 9 9 9 9 9 9 9 9 9 9 9
9 8 9 9 9 9 9 8 9 9 10 10 11 11 13 11 11 11 11 9 8 8 8 8 9 9 9 9 9 9 9 9 9 9 9 8 8 8 8 8 8 8 8 8
8 8 8 8 8 8 8 9 9 9 10 10 10 11 13 12 11 11 11 9 8 8 8 8 8 8 9 9 9 8 8 8 8 8 8 8 8 8 8 8 8 8 8 8
9 9 8 7 8 9 9 10 10 10 10 11 9 10 12 12 11 11 10 9 8 8 8 8 8 8 8 8 8 8 8 8 8 8 8 8 8 8 8 7 7 7 7 7
9 10 8 8 8 9 9 9 10 11 11 12 9 10 12 10 9 9 9 8 8 8 8 8 8 8 8 8 8 8 8 8 8 8 7 7 7 7 7 7 7 7 7 7
9 9 8 7 7 8 9 9 9 9 8 10 12 11 12 10 10 9 9 8 8 7 7 7 7 8 8 8 8 8 8 8 7 7 7 7 7 7 7 7 7 7 6 6
8 8 8 7 7 7 8 8 8 9 9 11 12 12 12 10 10 10 9 9 8 7 7 7 7 7 7 8 7 7 7 7 7 7 7 7 7 7 6 6 6 6 6 6
7 8 8 8 8 8 7 8 8 9 9 10 11 12 11 10 10 9 9 8 7 7 7 7 7 7 7 7 7 7 7 7 7 7 7 7 6 6 6 6 6 6 6 6
6 7 8 8 7 7 7 8 8 9 8 8 9 11 10 9 9 8 8 7 7 7 7 7 7 7 7 7 7 7 7 7 6 6 6 6 6 6 6 6 5 5 5 5
6 7 8 9 8 6 7 7 7 8 8 8 9 11 9 8 8 7 7 7 7 6 7 7 7 7 7 7 7 7 7 6 6 6 6 6 6 5 5 5 5 5 5 5
6 7 8 9 9 8 7 7 6 7 7 8 9 10 10 9 9 8 7 7 6 6 6 7 7 7 7 7 6 6 6 6 6 6 5 5 5 5 5 5 5 4 4 4
6 7 7 7 7 6 6 7 6 6 7 8 9 9 10 10 9 8 7 6 6 6 6 6 6 6 6 6 6 6 6 6 6 5 5 5 5 5 4 4 4 4 4 4
5 6 6 6 6 6 5 6 6 6 7 7 7 8 9 8 7 7 7 6 6 6 6 6 6 6 6 6 6 6 6 5 5 5 5 5 4 4 4 4 4 4 3 3
5 5 5 7 6 6 7 7 6 6 6 7 7 8 8 7 7 7 6 6 6 6 6 6 6 6 5 5 5 5 5 5 5 5 5 4 4 4 4 3 3 3 3 3
4 5 5 6 6 6 9 7 7 6 7 7 7 7 7 7 6 5 5 5 5 5 5 5 5 5 5 5 5 5 5 5 5 4 4 4 4 3 3 3 3 3 3 2
4 5 5 5 6 7 8 7 6 6 6 6 6 6 6 5 5 6 5 5 5 5 5 5 5 5 5 5 5 4 4 4 4 4 4 4 3 3 3 3 2 2 2 2
2 3 4 4 5 6 8 6 5 6 7 6 6 6 5 5 6 7 5 5 4 4 4 5 5 4 4 4 4 4 4 4 4 3 3 3 3 2 2 2 2 2 2 2
2 3 3 4 5 7 7 5 5 6 7 6 5 5 4 5 5 5 4 4 4 4 4 4 4 4 4 4 4 4 3 3 3 3 3 3 2 2 2 2 1 1 1 1
4 3 3 4 4 5 5 4 5 6 5 5 4 4 4 4 4 4 4 4 3 3 3 3 3 3 3 3 3 3 3 3 3 2 2 2 2 2 1 1 1 1 1 0
4 5 5 5 6 6 4 5 5 5 4 4 4 4 4 3 3 3 3 3 3 3 3 3 3 3 3 3 3 2 2 2 2 2 2 2 2 1 1 1 1 1 0 -0
3 3 3 4 5 5 4 4 4 4 4 4 4 3 3 3 3 3 2 2 2 2 2 2 2 2 2 2 2 2 2 2 2 2 1 1 1 1 1 1 0 0 -0 -0
4 2 3 3 4 4 4 4 4 4 3 3 3 3 2 2 2 2 2 2 2 2 2 2 2 2 2 2 2 2 2 1 1 1 1 1 1 1 0 0 -0 -0 -0 -1
3 3 3 4 5 4 4 4 3 3 3 3 2 2 2 2 2 2 1 1 1 1 1 1 1 1 1 1 1 1 1 1 1 1 1 0 0 0 -0 -0 -0 -0 -1 -1
Wind_Speed
2 1 2 3 3 2 1 2 4 4 4 4 6 8 7 4 3 3 3 3 3 3 3 3 3 3 4 4 3 3 3 2 2 2 2 2 1 1 1 1 1 1 1 2
1 2 3 3 2 1 2 3 4 4 4 4 6 8 5 3 3 3 3 3 3 3 3 3 3 3 3 3 3 3 3 3 2 1 1 1 1 1 1 1 1 0 0 1
1 2 2 1 2 2 3 4 5 6 6 3 5 5 3 1 2 1 2 2 2 3 4 4 4 3 3 3 3 2 2 2 2 2 1 1 1 1 2 2 1 1 1 1
1 2 1 1 2 3 4 2 4 5 5 3 3 4 3 2 2 2 1 2 2 2 3 3 3 3 3 2 2 2 2 2 2 2 2 2 2 2 2 2 2 2 1 1
1 1 2 2 3 3 2 3 4 4 3 3 2 4 4 2 4 3 2 2 2 2 3 3 3 3 2 2 2 2 2 2 2 2 2 3 2 2 1 2 2 2 2 2
1 1 2 2 2 2 2 2 2 2 2 3 3 4 4 3 5 4 3 2 2 2 3 3 3 2 2 2 2 2 2 2 2 2 3 3 3 3 3 3 3 3 2 2
1 0 0 1 1 0 1 2 2 1 2 3 0 4 5 2 3 4 4 3 2 2 3 3 3 2 2 2 2 2 3 2 2 3 3 3 3 4 4 4 4 3 2 2
2 2 0 1 1 2 1 2 2 3 3 3 2 5 3 1 2 3 3 2 1 2 3 3 3 3 3 3 3 3 3 3 3 3 3 3 3 3 3 4 3 3 3 3
2 2 1 1 2 2 1 1 1 1 2 4 4 4 4 1 1 1 1 1 1 1 2 2 3 3 3 3 3 3 4 3 3 3 3 3 3 4 4 3 4 3 3 3
2 3 2 2 2 1 2 1 2 2 3 4 4 4 3 2 3 2 1 1 1 1 1 2 2 3 2 2 3 3 4 4 4 4 4 3 4 4 4 3 4 4 3 3
2 3 2 2 4 3 2 2 2 2 3 3 4 3 1 2 3 2 2 1 2 2 2 2 2 2 2 2 2 3 3 3 3 4 4 4 4 3 4 4 4 4 3 3
2 2 4 4 1 2 4 4 4 3 4 4 4 4 2 2 2 3 3 3 3 3 2 2 2 2 2 3 3 3 3 3 4 4 4 4 4 4 4 4 4 4 4 4
2 3 4 2 3 3 4 4 5 3 3 5 5 5 2 1 2 3 3 3 3 3 2 2 2 3 3 3 3 3 4 4 3 3 4 4 4 4 4 5 4 4 4 4
3 5 7 7 5 3 6 7 7 7 6 8 10 11 6 4 4 5 4 4 4 3 3 3 3 3 3 3 4 4 4 4 4 4 4 5 5 5 5 5 4 4 4 5
3 6 8 11 10 9 11 12 11 13 13 11 11 12 12 9 8 7 5 5 5 4 4 4 4 3 3 3 4 4 4 4 4 4 5 5 5 4 4 4 4 4 5 5
3 5 5 8 8 9 13 15 15 15 15 17 18 17 12 10 7 7 7 7 7 6 5 5 5 4 4 4 4 4 4 4 4 5 5 5 4 4 4 5 5 5 5 5
4 4 4 7 5 8 11 11 13 10 11 11 13 11 7 7 7 8 7 7 7 7 6 6 6 5 5 5 5 5 5 5 5 5 5 5 5 5 5 5 5 5 6 6
7 6 4 5 5 8 4 1 6 9 9 11 10 8 7 7 8 7 7 7 7 7 7 7 6 6 5 5 4 5 5 5 5 5 6 6 5 6 5 5 6 6 5 6
9 7 5 4 7 10 7 3 4 6 6 6 9 9 8 6 6 5 5 6 7 8 7 7 6 6 5 5 4 4 4 5 5 6 6 6 6 6 6 6 6 6 6 6
5 7 6 6 6 7 3 1 0 3 5 3 4 6 5 4 5 5 5 7 7 7 6 6 5 5 6 5 4 4 5 6 6 6 6 6 6 7 7 7 7 6 5 6
5 6 10 11 9 9 3 1 3 4 2 1 3 4 4 5 7 8 8 8 8 8 7 6 5 5 5 4 4 6 6 7 7 6 6 6 6 7 7 7 6 6 5 5
8 7 9 8 9 9 3 4 4 4 3 3 4 5 6 8 9 9 9 9 8 7 7 6 5 6 5 5 5 6 8 7 6 6 6 7 7 6 5 6 6 5 5 6
9 8 5 8 8 4 4 5 5 4 5 5 6 7 8 10 11 11 10 9 8 7 7 6 6 6 6 6 6 7 8 6 6 6 7 7 6 6 6 6 6 5 5 5
6 6 7 8 11 10 9 9 9 8 8 8 8 9 10 11 12 11 10 9 8 8 7 6 6 7 7 7 7 8 7 6 6 7 7 6 6 6 6 5 5 5 5 5
8 6 7 11 12 11 10 8 8 9 9 9 10 10 10 11 11 11 10 9 8 8 7 6 7 8 8 7 8 7 6 6 7 7 6 6 6 6 5 5 5 6 6 6
10 10 10 12 10 9 11 9 8 10 10 10 11 11 10 9 11 10 10 9 8 8 8 8 8 8 8 8 8 7 7 6 7 6 6 5 5 5 5 5 5 6 8 8
Wind_Direction
15 61 28 345 326 301 296 282 293 306 326 309 285 288 292 288 256 241 223 190 178 170 156 143 141 137 136 135 140 143 142 143 150 162 171 169 184 189 186 147 66 33 2 326
96 31 342 328 326 275 275 287 297 315 338 311 291 288 283 269 247 249 235 211 188 174 162 158 151 140 146 144 145 144 153 154 163 175 167 181 189 212 216 211 211 283 346 340
77 354 336 312 339 315 304 291 303 308 313 283 298 277 235 235 245 248 239 227 205 196 192 176 167 165 160 155 156 160 162 161 167 163 140 140 174 202 212 218 225 241 250 252
25 338 332 331 323 301 287 314 302 303 303 296 319 289 250 238 242 228 214 208 210 200 193 186 183 184 179 172 162 165 168 172 171 175 184 194 224 240 248 249 237 236 240 240
337 332 327 313 315 296 295 318 293 287 279 280 258 260 265 189 229 231 229 226 219 202 193 191 189 193 184 169 163 170 176 181 182 193 203 214 224 242 249 250 240 243 245 255
295 298 306 308 317 290 279 286 271 237 245 259 245 245 264 209 226 229 225 241 231 197 185 185 176 170 166 159 163 178 187 194 199 208 213 221 230 232 234 245 252 253 248 251
331 208 326 279 300 36 302 295 297 258 243 259 255 252 259 256 245 239 233 240 245 205 188 182 178 178 176 178 187 197 204 213 217 218 223 231 237 240 243 253 258 261 259 256
294 273 238 297 285 280 275 281 287 290 288 297 246 251 270 331 282 263 243 232 215 189 186 191 195 198 198 200 205 208 216 227 230 231 238 241 240 243 248 250 256 258 262 265
273 274 12 296 292 258 223 210 297 273 287 274 256 269 279 193 237 220 189 182 189 196 197 201 203 202 204 209 218 219 222 231 236 237 242 246 244 245 251 258 260 258 255 260
272 275 280 304 226 206 292 193 192 227 277 277 276 265 266 230 220 214 210 240 295 287 243 223 217 216 218 220 224 221 227 233 239 241 242 248 250 251 252 252 251 252 254 254
250 256 277 249 225 232 186 200 223 233 261 274 286 278 347 247 230 229 246 271 294 292 270 250 239 234 234 229 223 221 230 236 243 247 250 251 254 256 254 250 253 254 250 248
218 251 266 254 252 287 243 237 216 242 245 241 271 280 73 260 258 250 256 271 288 282 266 253 243 235 236 237 232 231 236 241 247 252 254 255 257 255 254 256 256 255 254 251
198 236 282 247 195 197 233 230 226 244 248 230 241 261 100 309 273 259 260 273 280 278 266 252 244 240 241 244 243 243 245 249 252 253 253 254 252 250 252 256 260 256 253 250
222 236 241 266 294 264 257 246 226 220 233 244 242 263 275 283 287 284 276 272 270 268 265 263 262 254 250 249 250 250 252 253 251 249 249 251 252 252 254 256 257 257 253 247
214 251 252 264 271 268 262 258 240 231 237 248 261 264 276 287 285 283 274 269 268 268 268 266 265 261 255 257 258 257 255 252 248 247 249 254 258 258 258 256 256 256 254 251
221 251 267 272 264 262 265 259 248 243 244 249 263 272 280 290 286 276 270 266 265 264 266 267 266 265 261 260 259 258 254 251 247 249 254 258 259 256 254 256 256 255 255 252
214 223 254 271 285 286 265 248 231 230 228 232 246 262 284 287 283 280 276 266 263 265 268 266 266 267 267 265 258 254 251 247 247 251 256 256 254 255 255 255 253 254 256 254
215 215 242 275 282 251 260 158 218 229 244 233 247 269 280 286 295 286 276 272 273 273 273 271 269 268 271 269 261 254 248 242 245 251 255 256 254 257 259 256 255 256 257 256
217 214 227 241 260 272 273 235 205 219 254 237 244 266 281 297 298 282 283 281 281 278 276 274 270 268 269 264 256 249 248 246 247 251 254 255 253 255 257 257 259 260 259 259
202 219 227 227 246 256 271 99 201 219 246 226 239 269 285 295 288 301 323 303 292 287 282 276 273 270 265 262 249 245 251 252 253 256 260 261 255 253 254 258 261 260 258 261
180 204 220 230 242 263 279 131 160 223 281 353 273 280 277 274 285 302 306 301 296 293 289 282 274 268 266 262 249 252 256 257 261 263 262 261 257 254 256 259 259 257 256 259
196 197 208 213 229 248 162 155 203 273 323 290 283 282 279 282 291 293 294 294 294 293 290 284 277 276 274 260 248 255 261 267 267 261 259 260 259 257 253 253 256 254 251 254
218 216 215 213 234 279 198 229 257 270 272 276 277 279 279 284 287 289 289 288 287 285 284 283 280 279 276 264 252 257 267 269 265 260 261 262 261 258 252 249 250 250 246 250
236 230 237 252 261 266 266 264 264 262 270 280 282 283 282 284 286 286 285 283 283 282 279 280 278 275 275 271 263 263 267 263 257 259 263 263 260 260 255 249 245 244 244 248
241 208 233 254 269 281 273 259 270 280 280 281 283 283 280 280 281 282 282 280 278 277 275 272 268 270 275 277 272 268 264 256 255 259 260 259 256 255 255 250 247 246 247 246
230 224 235 258 266 268 280 286 285 280 279 283 288 289 284 277 278 280 278 276 274 274 274 271 267 268 271 273 274 271 261 250 250 255 256 254 252 251 251 254 261 248 249 255
Height
1520 1519 1518 1518 1518 1516 1514 1512 1510 1510 1512 1510 1505 1502 1500 1500 1501 1500 1500 1501 1502 1503 1504 1505 1506 1506 1508 1509 1510 1511 1512 1513 1514 1514 1514 1514 1514 1515 1515 1515 1514 1514 1514 1513
1519 1520 1523 1522 1520 1518 1516 1513 1510 1510 1512 1510 1505 1501 1498 1499 1500 1500 1500 1500 1501 1502 1503 1504 1504 1505 1506 1507 1508 1509 1511 1511 1512 1512 1512 1512 1513 1512 1512 1512 1512 1511 1511 1510
1519 1523 1524 1522 1520 1517 1516 1514 1512 1513 1511 1509 1506 1496 1496 1498 1499 1499 1500 1500 1500 1501 1501 1502 1503 1505 1506 1506 1507 1508 1509 1509 1510 1510 1510 1510 1510 1510 1509 1509 1509 1508 1508 1507
1522 1524 1524 1521 1520 1518 1515 1517 1517 1515 1510 1505 1507 1499 1492 1495 1497 1498 1498 1498 1499 1500 1500 1501 1502 1503 1504 1505 1506 1507 1507 1508 1508 1508 1508 1508 1508 1507 1507 1507 1506 1505 1505 1504
1523 1525 1523 1521 1522 1521 1518 1520 1518 1515 1511 1509 1506 1504 1489 1494 1494 1495 1496 1497 1498 1498 1498 1499 1501 1502 1502 1503 1504 1505 1506 1506 1506 1506 1505 1505 1505 1505 1504 1504 1503 1503 1502 1501
1525 1527 1526 1524 1524 1523 1522 1519 1516 1515 1511 1509 1505 1504 1490 1491 1492 1492 1494 1496 1497 1497 1498 1498 1499 1500 1501 1502 1502 1503 1504 1504 1504 1503 1503 1503 1503 1502 1502 1501 1500 1500 1499 1498
1523 1524 1526 1525 1522 1521 1520 1516 1512 1508 1507 1501 1507 1504 1492 1490 1492 1493 1494 1495 1495 1496 1496 1497 1497 1498 1499 1500 1501 1501 1502 1502 1502 1501 1501 1501 1500 1500 1499 1499 1498 1497 1496 1495
1522 1520 1524 1524 1523 1521 1520 1518 1516 1510 1502 1496 1505 1499 1489 1492 1494 1494 1494 1494 1494 1495 1495 1496 1496 1497 1498 1498 1499 1499 1499 1500 1499 1499 1498 1498 1498 1497 1496 1496 1495 1494 1493 1492
1521 1520 1525 1525 1525 1523 1519 1518 1519 1517 1516 1508 1493 1492 1488 1491 1492 1493 1493 1493 1494 1494 1494 1495 1495 1496 1496 1497 1497 1497 1497 1497 1497 1497 1496 1496 1495 1494 1494 1493 1492 1491 1490 1489
1526 1524 1523 1525 1524 1524 1522 1520 1519 1517 1511 1501 1491 1489 1485 1488 1489 1491 1492 1492 1493 1493 1493 1493 1494 1494 1494 1495 1495 1495 1495 1495 1494 1494 1493 1493 1492 1492 1491 1490 1489 1488 1487 1486
1528 1525 1523 1522 1520 1518 1521 1521 1517 1515 1513 1506 1495 1486 1486 1487 1488 1490 1491 1492 1492 1492 1491 1492 1492 1492 1493 1493 1493 1493 1492 1492 1492 1491 1490 1490 1489 1488 1488 1487 1486 1485 1484 1483
1528 1525 1520 1518 1521 1522 1519 1516 1515 1514 1512 1511 1503 1491 1488 1489 1490 1490 1490 1491 1491 1490 1490 1490 1490 1490 1490 1490 1490 1490 1490 1489 1489 1488 1487 1486 1486 1485 1484 1483 1482 1481 1480 1479
1528 1525 1517 1511 1519 1521 1518 1516 1516 1515 1513 1509 1502 1489 1489 1489 1489 1490 1490 1489 1489 1489 1488 1488 1488 1488 1488 1487 1487 1487 1486 1486 1485 1484 1484 1483 1482 1481 1480 1480 1479 1478 1477 1476
1526 1522 1518 1510 1506 1511 1513 1513 1514 1514 1510 1501 1495 1486 1485 1487 1488 1488 1488 1488 1487 1487 1486 1486 1486 1485 1485 1485 1484 1484 1483 1483 1482 1481 1480 1479 1479 1478 1477 1476 1475 1474 1473 1472
1525 1519 1517 1513 1512 1513 1511 1508 1509 1509 1501 1497 1486 1487 1483 1484 1486 1486 1486 1486 1485 1484 1484 1484 1483 1483 1482 1482 1481 1481 1480 1479 1478 1478 1477 1476 1475 1474 1473 1472 1471 1470 1469 1468
1522 1519 1517 1512 1510 1510 1508 1502 1501 1500 1498 1494 1490 1486 1483 1484 1484 1484 1484 1483 1482 1482 1481 1481 1480 1480 1479 1479 1478 1477 1476 1476 1475 1474 1473 1472 1471 1470 1469 1468 1467 1466 1465 1464
1519 1518 1515 1505 1507 1506 1496 1489 1491 1491 1489 1489 1486 1482 1481 1482 1482 1481 1480 1480 1479 1478 1478 1477 1477 1476 1476 1475 1474 1474 1473 1472 1471 1470 1469 1468 1467 1466 1465 1464 1463 1462 1461 1459
1517 1516 1513 1507 1506 1500 1482 1485 1485 1485 1483 1484 1482 1481 1481 1480 1479 1478 1478 1477 1476 1475 1475 1474 1473 1472 1472 1471 1470 1470 1469 1468 1467 1466 1465 1464 1463 1462 1461 1459 1458 1457 1456 1455
1514 1513 1510 1508 1499 1486 1481 1483 1484 1484 1480 1479 1479 1478 1478 1478 1477 1475 1474 1473 1472 1472 1471 1470 1469 1469 1468 1467 1466 1465 1464 1463 1462 1461 1460 1459 1458 1457 1456 1454 1453 1452 1451 1450
1513 1512 1509 1505 1501 1488 1476 1482 1482 1483 1477 1476 1477 1476 1476 1476 1473 1471 1471 1470 1469 1467 1467 1466 1465 1464 1463 1463 1462 1460 1459 1458 1457 1456 1455 1454 1453 1452 1451 1450 1449 1448 1446 1445
1509 1509 1506 1501 1496 1481 1479 1482 1483 1481 1474 1476 1475 1475 1475 1474 1472 1471 1468 1467 1465 1464 1462 1461 1460 1459 1459 1458 1457 1456 1455 1454 1453 1452 1450 1449 1448 1447 1446 1445 1444 1443 1441 1440
1496 1497 1498 1495 1494 1483 1478 1480 1479 1475 1474 1474 1473 1473 1472 1470 1468 1466 1464 1463 1461 1459 1458 1457 1456 1455 1454 1454 1452 1451 1450 1449 1448 1446 1445 1444 1443 1442 1441 1440 1439 1438 1436 1435
1489 1486 1483 1483 1478 1475 1475 1474 1473 1473 1472 1471 1471 1470 1468 1466 1464 1462 1460 1458 1457 1455 1454 1453 1451 1450 1449 1449 1448 1446 1445 1444 1443 1441 1440 1439 1438 1437 1436 1435 1434 1432 1431 1430
1484 1485 1483 1479 1473 1472 1472 1471 1470 1470 1469 1468 1467 1466 1464 1462 1460 1458 1456 1454 1452 1451 1449 1448 1447 1445 1444 1444 1443 1442 1440 1439 1438 1436 1435 1434 1433 1432 1431 1430 1429 1427 1426 1425
1476 1480 1478 1473 1470 1469 1466 1467 1466 1466 1465 1464 1462 1461 1459 1457 1454 1453 1450 1449 1447 1446 1445 1443 1442 1441 1440 1439 1437 1436 1435 1434 1432 1431 1430 1429 1428 1427 1426 1425 1424 1422 1421 1421
1472 1472 1471 1465 1464 1465 1463 1463 1462 1461 1460 1458 1457 1454 1453 1451 1449 1447 1445 1444 1442 1441 1439 1438 1437 1436 1434 1433 1432 1431 1430 1429 1427 1426 1425 1423 1422 1421 1420 1419 1418 1417 1417 1416